Location: Unspecified
(0.0000°N, 0.0000°E)
Time: 15:35:09
(UTC+02:00)

Ariane H10+ - Visible Passes

Search period start: 18 April 2014 00:00
Search period end: 28 April 2014 00:00
Orbit: 301 x 31978 km, 7.1° (Epoch: 17 April)

Date Brightness Start Highest point End Pass type
(mag) Time Alt. Az. Time Alt. Az. Time Alt. Az.
18 Apr 7.6 12:29:27 10° W 13:07:40 87° SSE 21:10:15 16° E visible
19 Apr 4.1 06:56:24 23° SW 06:58:11 39° SSE 07:08:20 10° ESE visible
19 Apr 7.5 17:09:28 10° W 01:11:40 33° W 01:11:40 33° W visible
21 Apr 5.8 05:38:34 12° ESE 05:38:34 12° ESE 05:39:03 10° ESE visible
21 Apr 6.7 15:31:45 10° W 23:53:55 72° NW 23:53:55 72° NW visible
23 Apr 6.7 14:02:52 10° W 22:27:38 78° N 22:35:53 52° ENE visible
25 Apr 7.4 12:37:26 10° W 13:29:33 90° SSE 21:17:35 19° E visible
26 Apr 4.4 07:02:57 18° SW 07:05:32 44° SSE 07:19:52 10° E visible
26 Apr 7.6 17:24:52 10° W 01:18:25 27° W 01:18:25 27° W visible
